Starlink 31363

operational
NORAD ID: 59782 Int'l Des: 2024-093 Owner: SPXS Country: US Constellation: starlink
LEOCIRCULAR

About Starlink 31363

Description loading...

Live Position

Loading 3D Globe...

Upcoming Passes

Altitude History

Altitude vs Time

uPlot chart will show altitude changes over time

Two-Line Element Set

1 59782U 24093A 25344.31747931 .00002208 00000-0 89710-4 0 9993
2 59782 43.0017 350.4206 0000581 246.6783 113.4008 15.27585228 89063
Epoch: Dec 10, 2025 • Age: 11 hours

Current Status

Altitude 484.5 km
Velocity 7.62 km/s
Sub-Earth Point -9.02°S, 19.84°W
Launch Date May 18, 2024
Age 1.5 years
Type internet

Technical Details

Classification Payload
Mass 730.00 kg
Dry Mass 700.00 kg
Total Mass 730.00 kg
Length 0.30 m
Diameter 4.10 m
Span 29.00 m
Shape Box + pan
Manufacturer SPXS
Bus Type Starlink V2M
Phase Status In Orbit
Owner/State SPXS/US

Large Constellations

Loading constellations...